DECAYED

CZ-6A DEB, 60893 (Decayed)

Orbit data source: Space-Track

CZ-6A DEB, 60893 was space debris in LEO originally from a launch on Tue, 06 Aug 2024 UTC launched from the Taiyaun Space Center, China (TSC). Debris objects in space refer to the collection of defunct objects orbiting the Earth. Examples of debris include non-operational satellites, rocket bodies, and fragments generated from explosions, collisions, or faulty payload assembly.

Not visible in the next 10 days
Identifier
60893, 2024-140KY
Orbit
Decayed
Country
Flag of CNCN / PRC
Related business
Manufacturer
SAST
Mission
Decayed spacecraft
Bus & Motor
Unknown
Mass
Unknown
Launch date (UTC)
2024-08-06 (2 years ago)
Launch vehicle
Unknown
Launch site
Taiyaun Space Center, China (TSC)
Object type
Payload
Rocket body
Debris
Shape & HBR
Unknown shape, 0.2 m
Radar Cross Section
Medium (>0.1 m² and <1 m²)

Expand to show TLE details & history
Last TLE update: 1 year ago

TLE from 1 year ago
0 CZ-6A DEB
1 60893U 24140KY  25032.34336598  .08442823  26011+0  28756-1 0  9999
2 60893  88.8619 325.7943 0033432 131.3854 229.0318 15.98745863 24941
Epoch: 2025-02-01T08:14Z
TLE epoch observation values (Epoch: 2025-02-01T08:14:26.820Z)
Latitude
0.00002°
Longitude
70.38948°
Altitude
295.837 km
Speed
7.722 km/s
True Right ascension
21h 43m 10s
True Declination
0° 00' 00"
Sunlit
Object was in daylight at epoch
Visualization orbit readout
Latitude
Unknown
Longitude
Unknown
Altitude
Unknown
Speed
Unknown
Apparent Right ascension
Unknown
Apparent Declination
Unknown
Sunlit
N/A
Visualization observer readout
Local Sidereal Time
10:18:36
Azimuth
Unknown
Elevation
Unknown
Doppler factor
Unknown
Orbital elements
Apogee altitude
296.84 km
Perigee altitude
252.357 km
Semi-major axis
6,652.735 km
Eccentricity
0.00334
Inclination
88.8619°
RAAN
325.7943°
Arg. of periapsis
131.3854°
True anomaly
228.74332°
Mean anomaly
229.0318°
Eccentric anomaly
228.88748°
Mean motion
3.99984 °/min
Orbital period
90 mins
BSTAR
0.028756
Loading maneuver chart data...
Computing Atmospheric mass density...
Loading historical data...
Loading historical data...
Loading historical data...
Loading historical data...
Loading historical data...
Loading historical data...
Loading historical data...

Documentation

Showing up to 5 results
|